Houston Hooks, TX

12:15 PM CDT on March 30, 2017 (GMT -0500)
Hooks Memorial

Weather History for KDWH - November, 2013

Change the Weather History Date:

Saturday, November 16, 2013

  Actual Average Record
Temperature  
Mean Temperature 69 °F -  
Max Temperature 81 °F 68 °F 84 °F (2016)
Min Temperature 57 °F 49 °F 33 °F (1997)
Cooling Degree Days 4    
Growing Degree Days 19 (Base 50)    
Moisture  
Dew Point 67 °F    
Average Humidity 93    
Maximum Humidity 100    
Minimum Humidity 74    
Precipitation  
Precipitation 0.02 in - - ()
Sea Level Pressure  
Sea Level Pressure 29.88 in    
Wind  
Wind Speed 2 mph (SSE)    
Max Wind Speed 12 mph    
Max Gust Speed 20 mph    
Visibility 5 miles    
Events Fog , Rain    
Averages and records for this station are not official NWS values.
T = Trace of Precipitation, MM = Missing Value Source: NWS Daily Summary

Daily Weather History Graph

Daily Weather History Graph

Search for Another Location

Airport or City:

Trip Planner

Search our weather history database for the weather conditions in past years. The results will help you decide how hot, cold, wet, or windy it might be!

Date:

Astronomy

Nov. 16, 2013 Rise Set
Actual Time 6:48 AM CST 5:25 PM CST
Civil Twilight 6:23 AM CST 5:50 PM CST
Nautical Twilight 5:54 AM CST 6:19 PM CST
Astronomical Twilight 5:25 AM CST 6:48 PM CST
Moon 4:58 PM CST (11/16) 5:49 AM CST (11/16)
Length of Visible Light 11h 27m
Length of Day
10h 36m
Waxing Gibbous, 99% of the Moon is Illuminated
Nov 16
Waxing Gibbous
Nov 17
Full
Nov 25
Last Quarter
Dec 2
New
Dec 9
First Quarter

Hourly Weather History & Observations

Time (CST) Temp. Heat Index Dew Point Humidity Pressure Visibility Wind Dir Wind Speed Gust Speed Precip Events Conditions
12:45 AM 64.4 °F - 64.4 °F 100% 29.95 in 2.5 mi Calm Calm - N/A   Clear
12:49 AM 62.6 °F - 62.6 °F 100% 29.95 in 1.2 mi Calm Calm - N/A   Partly Cloudy
12:53 AM 63.0 °F - 63.0 °F 100% 29.95 in 0.8 mi Calm Calm - N/A   Mist
1:13 AM 62.6 °F - 62.6 °F 100% 29.94 in 0.2 mi Calm Calm - N/A Fog Fog
1:43 AM 60.8 °F - 60.8 °F 100% 29.93 in 0.2 mi Calm Calm - N/A Fog Fog
1:53 AM 60.1 °F - 60.1 °F 100% 29.94 in 0.2 mi Calm Calm - N/A Fog Fog
2:53 AM 59.0 °F - 59.0 °F 100% 29.92 in 0.2 mi Calm Calm - N/A Fog Fog
3:53 AM 57.9 °F - 57.9 °F 100% 29.91 in 0.2 mi Calm Calm - N/A Fog Fog
4:53 AM 57.9 °F - 57.9 °F 100% 29.90 in 0.2 mi Calm Calm - 0.01 in Fog Fog
5:06 AM 59.0 °F - 59.0 °F 100% 29.91 in 0.2 mi Calm Calm - N/A Fog Fog
5:34 AM 57.2 °F - 57.2 °F 100% 29.91 in 0.5 mi Calm Calm - N/A Fog Fog
5:53 AM 59.0 °F - 59.0 °F 100% 29.91 in 2.0 mi Calm Calm - N/A   Overcast
6:00 AM 60.8 °F - 60.8 °F 100% 29.91 in 1.8 mi Calm Calm - N/A   Mostly Cloudy
6:14 AM 59.0 °F - 59.0 °F 100% 29.91 in 0.5 mi Calm Calm - N/A Fog Fog
6:44 AM 57.2 °F - 57.2 °F 100% 29.92 in 0.2 mi Calm Calm - N/A Fog Fog
6:51 AM 57.2 °F - 57.2 °F 100% 29.92 in 0.2 mi Calm Calm - N/A Fog Fog
6:53 AM 57.9 °F - 57.9 °F 100% 29.92 in 0.2 mi Calm Calm - N/A Fog Fog
7:07 AM 60.8 °F - 60.8 °F 100% 29.91 in 0.5 mi Calm Calm - N/A Fog Fog
7:18 AM 60.8 °F - 60.8 °F 100% 29.92 in 0.2 mi Calm Calm - N/A Fog Fog
7:26 AM 60.8 °F - 60.8 °F 100% 29.92 in 0.8 mi Calm Calm - N/A   Mist
7:34 AM 62.6 °F - 62.6 °F 100% 29.92 in 1.5 mi Calm Calm - N/A   Overcast
7:53 AM 64.0 °F - 64.0 °F 100% 29.92 in 2.0 mi Calm Calm - N/A   Overcast
8:08 AM 66.2 °F - 66.2 °F 100% 29.93 in 1.8 mi SE 3.5 mph - N/A   Overcast
8:23 AM 66.2 °F - 66.2 °F 100% 29.93 in 1.2 mi SE 5.8 mph - N/A   Overcast
8:53 AM 66.9 °F - 66.9 °F 100% 29.94 in 1.5 mi SE 3.5 mph - N/A   Overcast
9:14 AM 68.0 °F - 68.0 °F 100% 29.94 in 2.0 mi ESE 5.8 mph - 0.00 in Rain Light Rain
9:27 AM 69.8 °F - 69.8 °F 100% 29.95 in 2.5 mi SE 3.5 mph - 0.00 in   Overcast
9:44 AM 71.6 °F - 71.6 °F 100% 29.95 in 3.0 mi Calm Calm - 0.00 in   Overcast
9:53 AM 71.1 °F - 71.1 °F 100% 29.94 in 4.0 mi SSE 4.6 mph - 0.00 in   Overcast
10:32 AM 73.4 °F - 71.6 °F 94% 29.94 in 8.0 mi SSE 5.8 mph - N/A   Overcast
10:46 AM 75.2 °F - 71.6 °F 89% 29.93 in 9.0 mi SSE 6.9 mph - 0.00 in Rain Light Rain
10:53 AM 75.0 °F - 72.0 °F 90% 29.93 in 10.0 mi Variable 5.8 mph - 0.00 in   Overcast
11:00 AM 75.2 °F - 71.6 °F 89% 29.93 in 8.0 mi SSE 4.6 mph - N/A   Overcast
11:53 AM 79.0 °F - 73.0 °F 82% 29.89 in 8.0 mi SSE 6.9 mph - N/A   Overcast
12:00 PM 80.6 °F 84.6 °F 71.6 °F 74% 29.89 in 10.0 mi South 9.2 mph - N/A   Mostly Cloudy
12:53 PM 80.1 °F 83.8 °F 72.0 °F 76% 29.85 in 10.0 mi SSE 9.2 mph - N/A   Overcast
1:53 PM 81.0 °F 85.2 °F 72.0 °F 74% 29.81 in 10.0 mi South 10.4 mph 18.4 mph N/A   Overcast
2:53 PM 81.0 °F 85.2 °F 72.0 °F 74% 29.80 in 10.0 mi SSE 10.4 mph 16.1 mph N/A   Overcast
3:05 PM 80.6 °F 85.4 °F 73.4 °F 79% 29.80 in 10.0 mi SSE 9.2 mph 17.3 mph N/A   Overcast
3:36 PM 80.6 °F 84.6 °F 71.6 °F 74% 29.80 in 10.0 mi SSE 8.1 mph - N/A   Mostly Cloudy
3:44 PM 78.8 °F - 71.6 °F 78% 29.80 in 10.0 mi SSE 9.2 mph 17.3 mph N/A   Mostly Cloudy
3:53 PM 79.0 °F - 72.0 °F 79% 29.80 in 10.0 mi SSE 9.2 mph - N/A   Mostly Cloudy
4:04 PM 78.8 °F - 71.6 °F 78% 29.80 in 10.0 mi SSE 6.9 mph - N/A   Overcast
4:12 PM 78.8 °F - 71.6 °F 78% 29.80 in 10.0 mi South 8.1 mph 17.3 mph N/A   Mostly Cloudy
4:53 PM 78.1 °F - 71.1 °F 79% 29.81 in 10.0 mi SSE 11.5 mph 19.6 mph N/A   Mostly Cloudy
5:53 PM 77.0 °F - 71.1 °F 82% 29.81 in 10.0 mi South 6.9 mph 16.1 mph N/A   Overcast
6:23 PM 75.2 °F - 71.6 °F 89% 29.82 in 10.0 mi Variable 4.6 mph - N/A   Overcast
6:53 PM 75.0 °F - 73.0 °F 94% 29.83 in 9.0 mi Variable 4.6 mph - 0.00 in Rain Light Rain
7:53 PM 73.9 °F - 73.9 °F 100% 29.83 in 10.0 mi SSE 5.8 mph - 0.00 in   Overcast
8:04 PM 73.4 °F - 73.4 °F 100% 29.84 in 8.0 mi South 5.8 mph - 0.01 in Rain Light Rain
8:53 PM 73.9 °F - 73.9 °F 100% 29.84 in 10.0 mi SSE 4.6 mph - 0.01 in   Overcast
9:53 PM 75.0 °F - 73.9 °F 96% 29.83 in 10.0 mi SSE 6.9 mph - N/A   Overcast
10:04 PM 75.2 °F - 73.4 °F 94% 29.84 in 10.0 mi SSE 5.8 mph - N/A   Overcast
10:45 PM 75.2 °F - 73.4 °F 94% 29.84 in 10.0 mi South 6.9 mph - N/A   Overcast
10:53 PM 75.0 °F - 73.9 °F 96% 29.84 in 10.0 mi South 8.1 mph - N/A   Overcast
11:13 PM 75.2 °F - 73.4 °F 94% 29.84 in 10.0 mi South 6.9 mph - N/A   Overcast
11:53 PM 75.9 °F - 73.9 °F 94% 29.83 in 10.0 mi Variable 5.8 mph - N/A   Overcast